La Veta Pass, CO

2:01 PM MDT on March 23, 2017 (GMT -0600)
La Veta Pass

Weather History for KVTP - September, 2013

Change the Weather History Date:

Sunday, September 15, 2013

  Actual Average (KALS) Record (KALS)
Temperature  
Mean Temperature 47 °F -  
Max Temperature 53 °F 72 °F 83 °F (1956)
Min Temperature 41 °F 36 °F 24 °F (1987)
Degree Days  
Heating Degree Days 18    
Moisture  
Dew Point 42 °F    
Average Humidity 89    
Maximum Humidity 100    
Minimum Humidity 76    
Precipitation  
Precipitation 0.00 in - - ()
Sea Level Pressure  
Sea Level Pressure 30.43 in    
Wind  
Wind Speed 8 mph (East)    
Max Wind Speed 16 mph    
Max Gust Speed 23 mph    
Visibility 5 miles    
Events Fog , Rain , Thunderstorm    
Averages and records for this station are not official NWS values.
T = Trace of Precipitation, MM = Missing Value Source: NWS Daily Summary

Daily Weather History Graph

Daily Weather History Graph

Search for Another Location

Airport or City:

Trip Planner

Search our weather history database for the weather conditions in past years. The results will help you decide how hot, cold, wet, or windy it might be!

Date:

Astronomy

Sep. 15, 2013 Rise Set
Actual Time 6:42 AM MDT 7:07 PM MDT
Civil Twilight 6:16 AM MDT 7:34 PM MDT
Nautical Twilight 5:45 AM MDT 8:04 PM MDT
Astronomical Twilight 5:14 AM MDT 8:36 PM MDT
Moon 4:34 PM MDT (9/15) 2:27 AM MDT (9/15)
Length of Visible Light 13h 17m
Length of Day
12h 25m
Waxing Gibbous, 82% of the Moon is Illuminated
Sep 15
Waxing Gibbous
Sep 19
Full
Sep 26
Last Quarter
Oct 4
New
Oct 11
First Quarter

Hourly Weather History & Observations

Time (MDT) Temp. Windchill Dew Point Humidity Pressure Visibility Wind Dir Wind Speed Gust Speed Precip Events Conditions
12:14 AM 41.0 °F 34.3 °F 39.2 °F 93% 30.32 in 10.0 mi SW 11.5 mph 19.6 mph N/A Thunderstorm Clear
12:35 AM 41.0 °F 34.7 °F 37.4 °F 87% 30.32 in 10.0 mi SW 10.4 mph 19.6 mph N/A   Clear
12:54 AM 41.0 °F 35.2 °F 37.4 °F 87% 30.32 in 10.0 mi SW 9.2 mph 18.4 mph N/A Thunderstorm Clear
1:14 AM 41.0 °F 34.3 °F 37.4 °F 87% 30.32 in 10.0 mi SW 11.5 mph 20.7 mph N/A   Clear
1:34 AM 42.8 °F 35.8 °F 37.4 °F 81% 30.33 in 10.0 mi SW 13.8 mph 23.0 mph N/A Thunderstorm Clear
1:55 AM 42.8 °F 35.4 °F 37.4 °F 81% 30.33 in 10.0 mi SW 15.0 mph 21.9 mph N/A Thunderstorm Clear
2:10 AM 42.8 °F 36.6 °F 37.4 °F 81% 30.34 in 10.0 mi SW 11.5 mph 21.9 mph N/A   Clear
2:34 AM 42.8 °F 35.1 °F 37.4 °F 81% 30.33 in 10.0 mi SW 16.1 mph 21.9 mph N/A   Scattered Clouds
2:54 AM 42.8 °F 36.6 °F 37.4 °F 81% 30.33 in 10.0 mi SW 11.5 mph 19.6 mph N/A   Mostly Cloudy
3:14 AM 42.8 °F 38.6 °F 37.4 °F 81% 30.33 in 10.0 mi SW 6.9 mph 17.3 mph N/A Thunderstorm Scattered Clouds
3:34 AM 42.8 °F 39.3 °F 37.4 °F 81% 30.34 in 10.0 mi SW 5.8 mph - N/A   Clear
3:54 AM 42.8 °F 40.1 °F 37.4 °F 81% 30.35 in 10.0 mi WSW 4.6 mph - N/A   Clear
4:15 AM 42.8 °F 39.3 °F 37.4 °F 81% 30.36 in 10.0 mi West 5.8 mph - N/A   Scattered Clouds
4:34 AM 42.8 °F - 37.4 °F 81% 30.37 in 10.0 mi Calm Calm - N/A   Mostly Cloudy
4:53 AM 42.8 °F - 37.4 °F 81% 30.38 in 10.0 mi Calm Calm - N/A   Overcast
5:14 AM 42.8 °F 40.1 °F 37.4 °F 81% 30.38 in 10.0 mi SW 4.6 mph - N/A   Overcast
5:35 AM 42.8 °F - 37.4 °F 81% 30.38 in 10.0 mi Calm Calm - N/A   Overcast
5:55 AM 42.8 °F 41.1 °F 37.4 °F 81% 30.39 in 10.0 mi East 3.5 mph - N/A   Overcast
6:15 AM 42.8 °F 40.1 °F 39.2 °F 87% 30.39 in 10.0 mi East 4.6 mph - N/A   Overcast
6:33 AM 42.8 °F 41.1 °F 39.2 °F 87% 30.40 in 10.0 mi East 3.5 mph - N/A   Overcast
6:54 AM 42.8 °F 40.1 °F 41.0 °F 93% 30.40 in 10.0 mi ENE 4.6 mph - N/A   Overcast
7:14 AM 42.8 °F 40.1 °F 41.0 °F 93% 30.41 in 10.0 mi ENE 4.6 mph - N/A   Overcast
7:35 AM 42.8 °F 40.1 °F 41.0 °F 93% 30.41 in 1.8 mi ENE 4.6 mph - N/A   Overcast
7:55 AM 42.8 °F 40.1 °F 41.0 °F 93% 30.42 in 0.8 mi East 4.6 mph - N/A   Overcast
8:15 AM 42.8 °F 40.1 °F 41.0 °F 93% 30.42 in 5.0 mi East 4.6 mph - N/A   Overcast
8:34 AM 42.8 °F - 41.0 °F 93% 30.42 in 0.8 mi Calm Calm - N/A   Overcast
8:55 AM 44.6 °F - 42.8 °F 93% 30.42 in 2.5 mi Calm Calm - N/A   Overcast
9:15 AM 44.6 °F - 41.0 °F 87% 30.43 in 10.0 mi Calm Calm - N/A   Overcast
9:35 AM 48.2 °F - 42.8 °F 82% 30.44 in 10.0 mi Calm Calm - N/A   Mostly Cloudy
9:55 AM 51.8 °F - 44.6 °F 76% 30.44 in 10.0 mi East 3.5 mph - N/A   Mostly Cloudy
10:15 AM 50.0 °F - 42.8 °F 76% 30.44 in 10.0 mi NE 4.6 mph - N/A   Mostly Cloudy
10:33 AM 51.8 °F - 44.6 °F 76% 30.45 in 10.0 mi NNE 3.5 mph - N/A   Mostly Cloudy
10:55 AM 53.6 °F - 46.4 °F 77% 30.45 in 10.0 mi NE 5.8 mph - N/A   Overcast
11:14 AM 51.8 °F - 46.4 °F 82% 30.45 in 10.0 mi East 8.1 mph - N/A   Overcast
11:35 AM 46.4 °F 42.4 °F 44.6 °F 93% 30.46 in 1.0 mi ENE 8.1 mph - N/A   Overcast
11:51 AM 46.4 °F 41.9 °F 44.6 °F 93% 30.46 in 7.0 mi ENE 9.2 mph - N/A Thunderstorm Overcast
12:14 PM 46.4 °F 41.9 °F 44.6 °F 93% 30.45 in 4.0 mi ENE 9.2 mph - N/A   Overcast
12:33 PM 46.4 °F 42.4 °F 44.6 °F 93% 30.46 in 0.2 mi East 8.1 mph - N/A Rain Rain
12:55 PM 46.4 °F 41.5 °F 46.4 °F 100% 30.45 in 0.2 mi East 10.4 mph - N/A   Drizzle
1:13 PM 46.4 °F 41.5 °F 44.6 °F 93% 30.45 in 0.2 mi East 10.4 mph - N/A Rain Light Rain
1:34 PM 46.4 °F 40.7 °F 44.6 °F 93% 30.45 in 0.2 mi East 12.7 mph 16.1 mph N/A Rain , Thunderstorm Light Thunderstorms and Rain
1:54 PM 46.4 °F 41.5 °F 44.6 °F 93% 30.45 in 0.2 mi ENE 10.4 mph - N/A Thunderstorm Unknown
2:15 PM 48.2 °F - 46.4 °F 93% 30.45 in 0.2 mi ESE 9.2 mph - N/A Fog , Thunderstorm Unknown
2:34 PM 46.4 °F 41.5 °F 44.6 °F 93% 30.45 in 0.2 mi ENE 10.4 mph 16.1 mph N/A Fog , Thunderstorm Fog
2:55 PM 46.4 °F 42.9 °F 44.6 °F 93% 30.45 in 0.2 mi East 6.9 mph - N/A Thunderstorm Unknown
3:12 PM 48.2 °F - 46.4 °F 93% 30.45 in 0.2 mi East 6.9 mph - N/A Fog , Thunderstorm Fog
3:34 PM 46.4 °F 43.5 °F 44.6 °F 93% 30.45 in 0.2 mi East 5.8 mph - N/A Fog , Thunderstorm Unknown
3:51 PM 46.4 °F 43.5 °F 44.6 °F 93% 30.45 in 0.2 mi ENE 5.8 mph - N/A Fog , Thunderstorm Fog
4:13 PM 50.0 °F - 46.4 °F 87% 30.44 in 5.0 mi East 10.4 mph - N/A Thunderstorm Overcast
4:35 PM 51.8 °F - 44.6 °F 76% 30.44 in 10.0 mi East 4.6 mph - N/A Thunderstorm Thunderstorm
4:55 PM 46.4 °F 42.9 °F 42.8 °F 87% 30.44 in 10.0 mi ENE 6.9 mph - N/A Thunderstorm Mostly Cloudy
5:15 PM 46.4 °F 42.9 °F 44.6 °F 93% 30.44 in 0.2 mi ENE 6.9 mph - N/A Fog Fog
5:34 PM 46.4 °F 41.9 °F 44.6 °F 93% 30.45 in 2.0 mi ENE 9.2 mph - N/A   Overcast
5:54 PM 44.6 °F 38.4 °F 42.8 °F 93% 30.45 in 0.8 mi ENE 12.7 mph - N/A Thunderstorm Overcast
6:14 PM 44.6 °F 39.2 °F 42.8 °F 93% 30.46 in 10.0 mi ENE 10.4 mph 16.1 mph N/A   Overcast
6:35 PM 44.6 °F 38.4 °F 42.8 °F 93% 30.46 in 0.2 mi East 12.7 mph - N/A Fog , Thunderstorm Unknown
6:54 PM 44.6 °F 39.2 °F 42.8 °F 93% 30.47 in 0.2 mi ENE 10.4 mph - N/A Rain Light Rain
7:14 PM 44.6 °F 39.2 °F 42.8 °F 93% 30.47 in 0.2 mi East 10.4 mph - N/A Rain Light Rain
7:35 PM 44.6 °F 39.7 °F 42.8 °F 93% 30.47 in 0.2 mi East 9.2 mph - N/A Rain , Thunderstorm Light Thunderstorms and Rain
7:55 PM 44.6 °F 39.2 °F 42.8 °F 93% 30.47 in 0.2 mi ENE 10.4 mph - N/A Fog , Thunderstorm Fog
8:14 PM 44.6 °F 38.8 °F 42.8 °F 93% 30.48 in 0.2 mi East 11.5 mph 16.1 mph N/A Fog , Thunderstorm Unknown
8:33 PM 44.6 °F 39.7 °F 42.8 °F 93% 30.48 in 0.2 mi ENE 9.2 mph 17.3 mph N/A Thunderstorm Thunderstorm
8:55 PM 44.6 °F 38.8 °F 42.8 °F 93% 30.49 in 0.2 mi East 11.5 mph 17.3 mph N/A Thunderstorm Overcast
9:14 PM 44.6 °F 38.8 °F 42.8 °F 93% 30.50 in 0.2 mi ENE 11.5 mph 16.1 mph N/A Thunderstorm Unknown
9:35 PM 44.6 °F 39.2 °F 42.8 °F 93% 30.50 in 0.2 mi East 10.4 mph - N/A Thunderstorm Unknown
9:54 PM 44.6 °F 40.2 °F 42.8 °F 93% 30.50 in 0.5 mi ENE 8.1 mph - N/A Rain , Thunderstorm Heavy Thunderstorms and Rain
10:15 PM 44.6 °F 39.2 °F 42.8 °F 93% 30.50 in 0.5 mi East 10.4 mph - N/A Thunderstorm Unknown
10:35 PM 44.6 °F 39.2 °F 42.8 °F 93% 30.50 in 0.5 mi ENE 10.4 mph - N/A   Drizzle
10:55 PM 44.6 °F 39.2 °F 42.8 °F 93% 30.51 in 0.5 mi East 10.4 mph - N/A   Heavy Drizzle
11:15 PM 44.6 °F 39.7 °F 42.8 °F 93% 30.51 in 0.5 mi ENE 9.2 mph - N/A   Drizzle
11:34 PM 44.6 °F 42.2 °F 42.8 °F 93% 30.51 in 0.5 mi East 4.6 mph - N/A Rain Heavy Rain
11:53 PM 44.6 °F 39.7 °F 42.8 °F 93% 30.50 in 0.8 mi East 9.2 mph - N/A Rain Rain